[[{"header":{"parameterUnit":"m.s-1","parameterCategory":1,"la1":30.2991,"la2":30.254,"lo1":-89.0895,"lo2":-89.0444,"dy":0.0017,"dx":0.0017,"nx":28,"ny":28,"refTime":"2026-02-18T03:00:00:Z","depth":0,"parameterNumber":2,"parameterNumberName":"U-component_of_WINDS"},"data":[0,0,0,0,0,0,0,0,0,0,0,0,0,0,0,0,0,0,0,0,0,0,0,0,0,0,0,0,0,0,0,0,0,0,0,0,0,0,0,0,0,0,0,0,0,0,0,0,0,0,0,0,0,0,0,0,0,0,-0.3264,-0.3265,0,-0.3283,-0.3284,-0.3284,-0.3285,-0.3285,-0.3285,-0.3285,-0.3304,-0.3305,-0.3305,0,0,0,0,0,0,0,0,0,0,0,0,0,-0.3229,-0.3229,-0.3264,-0.3265,-0.3265,-0.3283,-0.3284,-0.3284,-0.3285,-0.3285,-0.3285,-0.3285,-0.3304,-0.3305,-0.3305,0,0,0,0,0,0,0,0,0,0,0,0,0,-0.3246,-0.323,-0.3264,-0.3268,-0.3268,-0.3283,-0.3284,-0.3284,-0.3285,-0.3285,-0.3285,-0.3285,-0.3303,-0.3304,-0.3305,-0.3318,0,0,-0.3309,-0.3309,0,0,0,0,0,0,0,0,-0.3245,-0.3247,-0.3267,-0.3268,-0.3268,-0.3282,-0.3278,-0.3295,-0.3286,-0.3279,-0.3285,-0.3284,-0.3297,-0.3298,-0.3303,-0.3319,-0.332,-0.3309,-0.3309,-0.331,-0.331,0,0,0,0,0,0,0,-0.3243,-0.3246,-0.3272,-0.3267,-0.3268,-0.3268,-0.327,-0.3281,-0.3289,-0.3279,-0.328,-0.3282,-0.3297,-0.3302,-0.3303,-0.332,-0.3309,-0.331,-0.331,-0.3311,-0.3348,-0.3348,0,0,0,0,0,0,-0.3242,-0.3245,-0.3271,-0.3272,-0.3255,-0.3269,-0.3271,-0.3278,-0.3289,-0.3291,-0.3282,-0.3282,-0.33,-0.3302,-0.3304,-0.3319,-0.331,-0.3311,-0.3311,-0.3347,-0.3348,-0.3348,0,0,0,0,0,0,-0.3241,-0.3244,-0.3271,-0.3259,-0.3262,-0.327,-0.3277,-0.3278,-0.3283,-0.3291,-0.3293,-0.3285,-0.33,-0.3302,-0.3314,-0.332,-0.3311,-0.3312,-0.3347,-0.3347,-0.3348,-0.335,0,0,0,0,0,0,-0.324,-0.3244,-0.3249,-0.3259,-0.3263,-0.3281,-0.3277,-0.3279,-0.3285,-0.3285,-0.3295,-0.3296,-0.33,-0.3313,-0.3316,-0.3321,-0.3313,-0.3346,-0.3347,-0.3348,-0.3349,-0.335,-0.3351,0,0,0,0,0,-0.3239,-0.3249,-0.3249,-0.3252,-0.3269,-0.3281,-0.3284,-0.3288,-0.3285,-0.329,-0.3295,-0.3296,-0.3319,-0.3314,-0.3317,-0.3323,-0.3346,-0.3347,-0.3348,-0.3349,-0.335,-0.3351,0,0,0,0,0,0,-0.3239,-0.325,-0.3251,-0.3264,-0.3272,-0.3282,-0.3288,-0.3289,-0.3298,-0.3297,-0.3302,-0.3304,-0.3316,-0.3321,-0.3315,-0.3336,-0.3332,-0.3333,-0.3332,-0.3333,-0.3334,-0.3333,-0.3314,0,0,0,0,0,-0.3241,-0.325,-0.3259,-0.327,-0.3274,-0.328,-0.3286,-0.3288,-0.3296,-0.3299,-0.3306,-0.3313,-0.3322,-0.3328,-0.3337,-0.335,-0.3352,-0.3356,-0.3357,-0.3357,-0.3358,-0.3365,-0.3367,-0.3351,-0.3351,-0.3351,0,0,-0.3244,-0.3251,-0.3257,-0.327,-0.3276,-0.3285,-0.3283,-0.3293,-0.3299,-0.3301,-0.3313,-0.3318,-0.3327,-0.3339,-0.3345,-0.3344,-0.3363,-0.3358,-0.3359,-0.3359,-0.3366,-0.3368,-0.3369,-0.3351,-0.3351,-0.3351,0,0,-0.3255,-0.3262,-0.3271,-0.3277,-0.3287,-0.3291,-0.3293,-0.3303,-0.3306,-0.3318,-0.332,-0.3327,-0.3343,-0.3349,-0.3354,-0.3367,-0.3367,-0.337,-0.3375,-0.3381,-0.3382,-0.3384,-0.3388,-0.3389,-0.3371,-0.3371,-0.3371,0,-0.3258,-0.3272,-0.3276,-0.3286,-0.3291,-0.3293,-0.3303,-0.3309,-0.3321,-0.3324,-0.3322,-0.3342,-0.3348,-0.3362,-0.3365,-0.3369,-0.3371,-0.3368,-0.3382,-0.3383,-0.3384,-0.3388,-0.339,-0.3371,-0.3371,-0.3371,-0.3371,0,-0.3275,-0.3284,-0.3291,-0.3302,-0.3309,-0.3318,-0.3324,-0.333,-0.3332,-0.3336,-0.3348,-0.3356,-0.3366,-0.3369,-0.3371,-0.3383,-0.3382,-0.3381,-0.3377,-0.3386,-0.339,-0.3391,-0.3371,-0.3371,-0.3371,-0.3371,0,0,-0.3287,-0.33,-0.3302,-0.3307,-0.3317,-0.3325,-0.3334,-0.3344,-0.3349,-0.3357,-0.3365,-0.3378,-0.3377,-0.3382,-0.3385,-0.3391,-0.34,-0.3389,-0.339,-0.3391,-0.3413,-0.3414,-0.3416,-0.3401,-0.3401,-0.3401,-0.3413,0,-0.3298,-0.3315,-0.3319,-0.3334,-0.3342,-0.3344,-0.3352,-0.3359,-0.3364,-0.3371,-0.3376,-0.3385,-0.3383,-0.3387,-0.3393,-0.3398,-0.3405,-0.3397,-0.3408,-0.3408,-0.3405,-0.3418,-0.3418,-0.3428,-0.3414,-0.3414,-0.3415,0,-0.3314,-0.3322,-0.3338,-0.3346,-0.335,-0.3357,-0.3366,-0.3374,-0.3382,-0.3385,-0.3391,-0.3393,-0.3403,-0.3399,-0.3412,-0.3407,-0.3411,-0.3415,-0.3415,-0.3416,-0.3412,-0.3418,-0.3432,-0.3433,-0.3417,-0.3417,-0.3417,0,-0.3321,-0.3335,-0.3346,-0.3351,-0.3361,-0.3366,-0.3371,-0.3378,-0.3384,-0.3392,-0.3395,-0.3405,-0.3409,-0.3416,-0.3421,-0.3417,-0.3433,-0.343,-0.3435,-0.3435,-0.3438,-0.3438,-0.3452,-0.3442,-0.3442,-0.3442,-0.3442,0,-0.3333,-0.3342,-0.3349,-0.3356,-0.3366,-0.3371,-0.338,-0.3385,-0.3392,-0.3399,-0.3402,-0.3408,-0.3414,-0.3422,-0.3425,-0.3435,-0.3437,-0.344,-0.344,-0.3439,-0.3439,-0.3442,-0.3441,-0.3442,-0.3442,-0.3442,-0.3442,0,-0.3342,-0.3347,-0.3359,-0.3368,-0.337,-0.3377,-0.3385,-0.3391,-0.3396,-0.3405,-0.3407,-0.3414,-0.3423,-0.3428,-0.344,-0.3442,-0.3453,-0.3454,-0.345,-0.3451,-0.3456,-0.3455,-0.3472,-0.3475,-0.3463,-0.3463,-0.3463,0,-0.335,-0.3357,-0.3366,-0.3371,-0.3376,-0.3384,-0.3389,-0.3394,-0.34,-0.3409,-0.3414,-0.3423,-0.3431,-0.3445,-0.3451,-0.346,-0.346,-0.3466,-0.3462,-0.346,-0.346,-0.3459,-0.346,-0.3466,-0.3466,-0.3467,-0.3467,0,-0.3362,-0.3364,-0.3372,-0.3381,-0.3387,-0.3394,-0.3401,-0.3405,-0.3411,-0.3417,-0.3426,-0.3432,-0.3443,-0.3452,-0.3461,-0.3466,-0.3467,-0.3468,-0.347,-0.3468,-0.3466,-0.3467,-0.3452,-0.3467,-0.3467,-0.3467,-0.3467,-0.3467,-0.337,-0.3376,-0.3384,-0.3392,-0.3398,-0.3404,-0.3411,-0.3415,-0.3423,-0.3433,-0.3435,-0.3445,-0.3452,-0.3464,-0.3469,-0.3477,-0.3476,-0.3478,-0.3479,-0.3479,-0.3479,-0.3465,-0.3478,-0.3478,-0.3478,-0.3478,-0.3478,0,-0.3383,-0.3387,-0.3395,-0.3405,-0.3411,-0.3412,-0.3419,-0.3425,-0.3433,-0.344,-0.3447,-0.3457,-0.3466,-0.3472,-0.3481,-0.3486,-0.3487,-0.3488,-0.3488,-0.3489,-0.348,-0.3477,-0.3487,-0.3487,-0.3487,-0.3487,-0.3487,-0.3487,-0.339,-0.34,-0.3403,-0.3416,-0.342,-0.3429,-0.3434,-0.344,-0.3445,-0.3456,-0.3463,-0.3467,-0.3474,-0.3483,-0.3491,-0.3493,-0.3496,-0.3497,-0.3499,-0.349,-0.3489,-0.3488,-0.3486,-0.3498,-0.3498,-0.3507,-0.3507,-0.3507]},{"header":{"parameterUnit":"m.s-1","parameterCategory":1,"la1":30.2991,"la2":30.254,"lo1":-89.0895,"lo2":-89.0444,"dy":0.0017,"dx":0.0017,"nx":28,"ny":28,"refTime":"2026-02-18T03:00:00:Z","depth":0,"parameterNumber":3,"parameterNumberName":"V-component_of_WINDS"},"data":[0,0,0,0,0,0,0,0,0,0,0,0,0,0,0,0,0,0,0,0,0,0,0,0,0,0,0,0,0,0,0,0,0,0,0,0,0,0,0,0,0,0,0,0,0,0,0,0,0,0,0,0,0,0,0,0,0,0,4.1274,4.1274,0,4.1236,4.1236,4.1235,4.1234,4.1234,4.1235,4.1235,4.1192,4.119,4.1189,0,0,0,0,0,0,0,0,0,0,0,0,0,4.1345,4.1343,4.1274,4.1274,4.1274,4.1236,4.1236,4.1235,4.1234,4.1234,4.1235,4.1236,4.1192,4.119,4.1189,0,0,0,0,0,0,0,0,0,0,0,0,0,4.1311,4.1343,4.1275,4.1269,4.1268,4.1236,4.1236,4.1235,4.1234,4.1234,4.1235,4.1236,4.1193,4.1191,4.1188,4.1159,0,0,4.1181,4.118,0,0,0,0,0,0,0,0,4.1313,4.1308,4.127,4.1269,4.1268,4.1241,4.1244,4.1209,4.1234,4.1246,4.1235,4.1236,4.1207,4.1204,4.1195,4.1157,4.1155,4.1181,4.1179,4.1178,4.1178,0,0,0,0,0,0,0,4.1315,4.131,4.1259,4.1269,4.1268,4.1267,4.1263,4.1238,4.1223,4.1245,4.1245,4.1241,4.1207,4.1197,4.1194,4.1155,4.1181,4.1179,4.1177,4.1176,4.1094,4.1093,0,0,0,0,0,0,4.1319,4.1312,4.126,4.1258,4.1293,4.1265,4.1261,4.1249,4.1223,4.122,4.124,4.1241,4.1201,4.1197,4.1192,4.1158,4.1178,4.1176,4.1175,4.1095,4.1094,4.1093,0,0,0,0,0,0,4.1321,4.1314,4.1262,4.1285,4.1278,4.1263,4.125,4.1247,4.1238,4.122,4.1217,4.1233,4.1201,4.1196,4.1168,4.1157,4.1175,4.1173,4.1095,4.1094,4.1093,4.1089,0,0,0,0,0,0,4.1323,4.1315,4.1304,4.1285,4.1277,4.1239,4.1249,4.1246,4.1234,4.1235,4.1212,4.1209,4.1201,4.1172,4.1166,4.1154,4.1171,4.1096,4.1095,4.1094,4.109,4.1088,4.1086,0,0,0,0,0,4.1325,4.1303,4.1303,4.1297,4.1263,4.1238,4.1234,4.1226,4.1233,4.1222,4.1211,4.121,4.1159,4.1169,4.1162,4.1149,4.1097,4.1095,4.1094,4.1091,4.1088,4.1086,0,0,0,0,0,0,4.1318,4.13,4.13,4.1271,4.1257,4.1238,4.1224,4.1223,4.1205,4.1206,4.1197,4.1192,4.1165,4.1154,4.1166,4.1121,4.1129,4.1126,4.1129,4.1126,4.1124,4.1127,4.1169,0,0,0,0,0,4.1314,4.1297,4.1281,4.1257,4.125,4.1238,4.1227,4.1223,4.1207,4.12,4.1187,4.117,4.1151,4.1138,4.1119,4.1089,4.1084,4.1076,4.1074,4.1073,4.107,4.1056,4.1052,4.1087,4.1087,4.1087,0,0,4.1304,4.1292,4.1281,4.1255,4.1243,4.1225,4.1233,4.1212,4.1199,4.1196,4.1171,4.1161,4.1142,4.1114,4.1101,4.1104,4.106,4.1071,4.107,4.1068,4.1054,4.105,4.1047,4.1086,4.1086,4.1087,0,0,4.1276,4.1265,4.1245,4.1234,4.1217,4.121,4.1205,4.1188,4.1182,4.1156,4.1155,4.1138,4.1104,4.1092,4.108,4.1052,4.1051,4.1046,4.1035,4.1021,4.1018,4.1016,4.1007,4.1003,4.1043,4.1043,4.1043,0,4.1265,4.1239,4.1234,4.1215,4.1204,4.1204,4.1184,4.1173,4.115,4.1142,4.1147,4.1107,4.1093,4.1063,4.1057,4.1048,4.1042,4.1048,4.1019,4.1017,4.1014,4.1006,4.1002,4.1043,4.1043,4.1043,4.1043,0,4.1227,4.1209,4.1195,4.1176,4.1163,4.1143,4.1135,4.1123,4.1121,4.1114,4.1089,4.1074,4.1053,4.1046,4.1042,4.1016,4.1019,4.1021,4.1029,4.1011,4.1002,4.0999,4.1042,4.1043,4.1043,4.1043,0,0,4.1192,4.1173,4.1168,4.116,4.1143,4.1129,4.111,4.1091,4.1082,4.1067,4.1051,4.1024,4.1027,4.1015,4.101,4.0998,4.0979,4.1002,4.1002,4.0999,4.0951,4.0949,4.0945,4.0978,4.0978,4.0977,4.0953,0,4.1164,4.1131,4.1128,4.1098,4.1083,4.1084,4.1067,4.1055,4.1048,4.1033,4.1025,4.1007,4.1012,4.1005,4.0993,4.0983,4.0969,4.0985,4.0963,4.0963,4.0968,4.0941,4.0938,4.0916,4.0949,4.0949,4.0948,0,4.1125,4.1112,4.1082,4.107,4.1063,4.1048,4.1033,4.1018,4.1005,4.1001,4.0989,4.0987,4.0968,4.0977,4.0951,4.0962,4.0953,4.0947,4.0946,4.0944,4.0954,4.0938,4.0908,4.0905,4.0943,4.0943,4.0944,0,4.1104,4.1079,4.1058,4.1051,4.1036,4.1026,4.1019,4.1007,4.0997,4.0983,4.0977,4.096,4.095,4.0938,4.0931,4.0938,4.0906,4.0914,4.0902,4.0902,4.0895,4.0895,4.0863,4.0888,4.0888,4.0889,4.0889,0,4.1073,4.1055,4.1049,4.1036,4.1017,4.1013,4.0993,4.0986,4.0976,4.0962,4.0961,4.0948,4.094,4.0926,4.0921,4.0901,4.0896,4.0892,4.0891,4.0893,4.0893,4.0886,4.0888,4.0888,4.0888,4.0888,4.0888,0,4.1046,4.1041,4.1019,4.1008,4.1005,4.0991,4.0981,4.0969,4.0963,4.0946,4.0941,4.0933,4.0916,4.0909,4.0887,4.0884,4.0862,4.0861,4.0867,4.0866,4.0855,4.0857,4.0818,4.0814,4.0841,4.0841,4.0841,0,4.1026,4.1012,4.1001,4.0993,4.0986,4.0972,4.0963,4.0959,4.095,4.0935,4.0925,4.0909,4.0896,4.087,4.0861,4.0845,4.0845,4.0833,4.0842,4.0845,4.0846,4.0847,4.0846,4.0831,4.083,4.083,4.083,0,4.0992,4.0991,4.0979,4.0966,4.0956,4.0945,4.0935,4.0928,4.0923,4.0912,4.0897,4.0887,4.0867,4.0852,4.0836,4.0829,4.0829,4.0828,4.0824,4.0825,4.083,4.0828,4.0862,4.0828,4.0828,4.0828,4.0828,4.0829,4.0968,4.0957,4.0948,4.0935,4.0928,4.0919,4.0908,4.0903,4.089,4.0875,4.0874,4.0857,4.0846,4.0826,4.0818,4.0805,4.0808,4.0803,4.0801,4.08,4.08,4.0832,4.0802,4.0802,4.0802,4.0802,4.0802,0,4.0935,4.093,4.0918,4.0905,4.0895,4.0899,4.0888,4.0879,4.0866,4.0856,4.0845,4.0828,4.0813,4.0805,4.0791,4.0782,4.0782,4.0778,4.0779,4.0778,4.0798,4.0803,4.0779,4.0779,4.0779,4.0779,4.0779,4.0779,4.0916,4.0899,4.0898,4.0877,4.0872,4.0857,4.0851,4.0844,4.0836,4.0818,4.0807,4.0803,4.0794,4.078,4.0767,4.0765,4.076,4.0756,4.0754,4.0773,4.0776,4.0778,4.0783,4.0755,4.0755,4.0735,4.0735,4.0735]}]]